Wind_Speed
5 6 7 6 4 5 5 3 3 4 4 4 3 4 4 4 3 3 4 5 7 12 14 12 12 15 16 14 10 8 5 4 5 7 8 8 9 11 11 12 13 14 16 16 16 17 17 18 19 21 23 24 24 26 29 31 33 33 32 31 30 29 29 29 28 27 26 25 24 24 25 25 25 25
5 4 5 5 4 5 5 3 3 4 4 4 4 4 3 3 3 2 3 4 6 11 14 15 15 17 18 15 12 10 9 11 13 14 14 13 13 14 14 16 17 18 20 21 21 21 21 20 19 20 22 23 23 24 26 28 31 33 34 34 33 32 32 31 31 30 29 28 26 25 27 27 26 27
4 4 4 5 4 4 5 4 3 4 5 4 5 6 5 4 4 3 4 3 5 11 15 16 16 17 17 16 14 13 12 13 14 13 14 14 13 14 15 17 18 19 20 21 21 22 22 22 21 21 21 22 23 24 25 26 29 31 33 35 35 35 34 34 33 33 32 30 29 28 28 29 29 29
4 3 3 2 2 3 5 4 3 4 4 3 4 4 3 4 4 5 6 5 8 13 15 15 16 15 15 16 15 14 14 14 14 13 13 13 14 15 16 17 17 18 19 19 20 19 20 20 20 21 22 23 23 24 25 26 27 28 30 33 35 36 36 36 35 35 34 33 32 31 31 31 31 31
5 4 3 2 1 1 3 3 3 4 5 5 6 5 3 4 4 5 7 7 9 13 14 14 16 16 16 17 15 15 16 16 16 15 15 15 16 17 18 17 17 17 17 18 19 20 21 21 21 21 21 22 23 23 25 25 26 27 28 29 32 34 35 37 37 37 36 36 35 35 35 34 33 33
7 6 4 4 3 2 1 2 2 4 5 5 7 6 5 6 7 6 9 10 10 13 15 16 17 16 16 16 15 15 17 18 17 17 18 17 17 17 17 17 18 17 18 18 19 19 21 22 23 23 22 22 22 23 23 24 25 27 28 29 29 31 33 35 37 38 38 38 38 38 38 37 36 36
9 8 6 5 5 4 2 1 2 3 4 4 5 6 7 8 9 8 9 10 11 13 15 16 16 16 16 16 17 17 18 18 18 19 19 18 17 17 17 18 18 18 18 18 17 16 17 19 21 23 24 24 24 24 24 24 24 26 27 29 30 31 31 32 34 37 38 39 39 40 41 40 39 39
10 9 8 7 6 6 4 2 2 2 2 3 4 6 7 8 9 9 8 9 11 13 15 15 16 17 18 18 18 18 18 18 18 18 18 18 18 17 17 17 17 18 20 21 20 19 18 18 19 21 24 25 25 25 25 26 26 26 27 28 30 31 32 33 33 34 36 38 39 40 41 42 42 41
11 10 9 8 7 6 5 3 3 2 2 3 4 5 7 8 10 11 11 12 13 14 16 18 18 18 19 19 19 18 19 19 19 18 17 17 18 18 18 19 20 20 21 20 20 19 18 17 18 20 22 25 26 27 27 27 28 28 29 29 30 30 32 33 34 34 35 36 37 39 41 43 44 43
12 11 9 8 8 7 6 5 4 3 3 3 4 5 7 8 10 11 12 12 13 15 17 18 18 19 19 20 20 18 17 19 20 19 19 19 19 19 19 19 18 18 18 17 17 18 19 21 21 22 23 24 26 27 27 28 28 29 29 29 29 29 30 33 34 35 35 35 36 37 39 42 45 44
12 12 10 9 9 8 6 6 5 5 4 4 5 6 7 8 9 10 11 12 13 15 17 18 18 19 18 19 20 19 17 18 19 19 19 19 17 16 16 16 16 16 18 20 21 23 24 24 23 23 24 25 27 27 28 29 29 29 28 28 28 28 29 31 33 35 35 35 35 36 38 41 44 45
12 12 11 9 9 8 8 9 9 7 6 7 8 8 7 7 8 10 11 11 13 14 16 17 18 18 19 18 19 19 17 16 16 16 17 19 19 19 19 20 21 21 23 24 25 24 23 23 23 23 24 25 26 28 29 30 29 29 30 30 29 29 29 29 31 33 35 36 35 35 37 39 41 45
12 12 10 10 10 10 11 12 11 9 9 9 9 9 8 8 8 9 10 11 12 14 15 16 17 17 17 17 18 18 17 17 18 19 21 23 23 24 24 24 22 21 22 23 24 22 21 21 22 22 23 24 25 26 28 29 30 29 29 29 28 28 29 29 30 32 34 35 35 35 36 37 39 42
12 11 10 11 12 13 13 13 12 12 10 8 8 9 8 8 9 9 10 11 12 13 14 15 16 16 17 17 17 18 18 19 21 21 20 20 21 21 21 21 19 17 18 20 21 20 19 20 22 21 21 22 22 23 24 26 28 29 29 28 27 25 25 27 29 32 33 34 35 35 35 36 38 40
13 12 11 11 13 14 14 13 13 11 9 9 10 9 7 8 9 10 12 13 14 14 15 15 16 16 16 17 17 18 20 19 19 19 19 19 19 18 16 15 15 15 16 21 24 23 21 21 24 25 25 24 23 24 25 25 26 28 29 30 29 26 23 24 26 28 31 32 32 33 34 35 37 38
13 12 12 11 11 12 12 12 10 9 10 12 11 9 9 9 11 12 14 16 17 17 16 16 16 17 18 19 19 19 20 20 20 20 21 20 19 19 17 15 16 16 16 21 25 25 22 20 22 25 25 25 26 27 28 27 27 28 29 29 30 28 25 25 25 26 27 28 30 31 33 34 35 36
12 11 12 11 9 9 9 10 10 10 12 12 10 8 9 10 12 14 16 18 20 21 21 21 19 18 18 19 19 19 19 21 23 21 19 17 18 19 19 19 22 21 20 23 26 25 24 23 25 28 28 28 29 30 29 28 29 30 30 28 29 30 27 26 26 26 26 26 27 29 31 33 34 35
12 10 10 9 8 8 9 10 10 10 9 9 7 7 8 10 13 15 17 19 20 22 24 26 26 24 23 23 24 24 23 23 21 17 15 16 19 22 24 27 30 30 27 27 26 25 25 23 25 30 30 29 30 30 30 30 30 31 31 29 28 29 30 28 27 27 27 27 27 28 29 32 33 33
12 10 9 9 9 10 11 11 12 11 11 11 11 11 12 14 16 16 17 19 20 20 22 25 27 27 27 27 26 24 22 21 20 20 21 22 23 26 29 30 31 30 27 25 24 24 25 23 24 28 28 27 28 28 28 29 27 28 30 29 28 30 31 29 27 27 27 27 26 25 26 27 29 31
10 9 9 10 11 12 12 12 13 13 14 15 15 15 16 17 18 18 18 18 18 20 21 22 24 25 26 26 26 25 25 26 27 29 29 27 26 26 27 27 27 27 25 23 23 26 26 23 24 29 27 26 28 29 28 27 26 27 28 27 26 28 30 27 25 24 24 23 22 21 21 23 25 26
9 9 10 11 11 11 11 12 13 14 16 18 18 18 18 18 18 19 19 19 19 19 20 22 23 24 25 25 26 28 30 31 31 31 29 25 23 23 21 20 23 25 23 20 21 25 26 22 23 27 26 25 28 28 26 27 27 27 27 26 24 25 27 23 21 21 20 20 20 19 19 20 22 23
9 10 11 11 12 12 13 14 15 16 17 16 15 15 16 17 19 20 20 20 19 18 19 19 20 21 22 23 23 24 25 26 28 30 30 26 22 21 19 18 21 23 23 21 20 23 26 24 24 25 24 24 27 26 23 25 27 28 27 25 23 24 24 21 19 18 18 19 20 20 19 18 19 21
8 8 9 9 11 13 15 15 15 15 14 14 13 13 15 17 19 20 19 19 19 20 22 23 24 25 26 26 27 26 24 22 22 24 27 27 24 22 21 20 18 15 15 16 18 21 23 21 21 21 17 14 18 20 19 21 24 25 25 24 21 21 20 18 18 18 19 20 20 20 20 18 19 21
5 5 8 10 10 11 13 13 12 12 12 13 14 16 17 19 20 21 22 23 24 26 27 28 28 28 28 27 27 27 26 25 24 24 25 26 26 25 23 21 18 15 15 15 16 20 21 18 18 21 17 12 13 16 18 19 15 12 17 17 15 14 14 14 16 18 18 20 21 22 22 20 19 21
4 5 9 10 8 8 9 9 9 12 14 16 19 20 20 20 20 21 23 23 23 24 24 24 23 22 22 22 22 22 22 22 23 24 25 25 26 26 26 24 22 21 20 18 17 20 21 18 18 21 21 18 17 18 20 18 9 4 7 7 6 8 10 12 15 17 18 19 20 21 21 20 20 21
7 8 10 10 6 6 9 11 13 17 19 20 20 19 17 17 18 18 19 21 21 20 20 20 19 19 18 18 19 19 20 20 21 22 23 23 24 25 27 27 26 25 23 20 19 22 23 20 18 18 18 18 19 20 22 20 12 5 6 9 9 9 12 15 17 17 17 16 16 16 16 15 16 17
8 8 9 9 7 9 13 16 18 18 17 15 14 13 14 15 16 17 19 21 20 19 18 18 19 18 18 18 18 19 19 20 20 21 21 22 22 23 24 25 27 28 26 24 23 23 24 22 21 21 20 18 18 17 18 19 17 14 13 13 13 13 14 16 17 16 15 14 13 12 11 12 13 14
7 8 10 11 13 16 18 18 16 14 12 11 11 12 14 16 17 18 20 20 19 18 18 18 19 18 18 19 19 19 20 21 21 22 23 24 24 24 24 24 25 25 25 24 22 23 24 24 23 22 22 21 18 15 14 17 20 21 18 12 11 12 14 15 14 13 13 12 11 10 12 14 15 16
7 9 11 13 17 19 18 15 13 12 10 10 12 14 15 16 17 19 19 18 18 18 18 18 19 20 20 21 21 22 23 23 23 23 24 24 25 26 27 27 28 27 27 26 24 23 23 24 24 23 22 22 21 19 18 17 18 22 21 14 9 10 12 13 13 12 11 10 9 10 14 16 18 19
7 9 12 15 16 16 14 13 14 14 12 12 12 14 15 16 16 16 16 16 17 18 19 19 20 21 21 22 23 23 23 23 23 23 23 23 23 24 25 26 26 26 26 26 26 26 25 25 24 23 22 22 22 21 21 19 18 21 22 15 8 8 9 12 13 11 9 9 10 12 15 16 17 18
10 12 13 13 12 11 12 12 13 13 12 12 13 14 15 15 15 16 17 17 18 20 21 21 21 22 22 22 22 21 21 22 22 21 22 23 23 23 23 23 23 23 23 23 24 25 24 23 23 23 22 21 21 21 21 21 20 20 20 17 11 8 8 11 11 9 8 9 11 13 14 15 16 17
11 10 9 8 8 11 12 12 12 11 11 13 14 15 16 17 17 18 19 19 19 20 21 22 22 23 23 22 22 22 22 22 21 21 21 22 23 23 22 22 21 21 21 22 22 23 23 23 23 24 24 23 23 22 21 21 21 20 19 17 14 12 11 12 12 9 9 11 12 12 13 15 15 16
8 7 8 9 10 12 13 13 14 15 15 16 16 16 17 17 18 18 19 20 21 22 23 23 24 24 24 23 23 24 24 24 24 23 23 23 23 22 22 21 20 20 20 21 22 23 24 24 24 25 26 27 28 26 24 22 23 22 19 16 14 13 13 13 13 12 12 14 14 12 13 15 15 15
9 8 10 11 11 13 15 15 15 15 15 16 16 17 17 19 19 20 21 22 23 23 23 23 24 24 24 24 24 24 24 25 25 25 24 25 24 23 22 21 21 21 21 22 23 25 25 25 24 24 25 26 28 29 28 27 26 25 21 16 14 14 14 13 13 13 15 17 16 15 14 14 15 15
10 9 9 11 13 14 15 14 14 14 15 15 16 18 19 20 20 20 21 22 22 22 23 24 24 25 25 24 25 25 25 25 25 24 24 24 24 24 24 23 23 24 23 23 24 25 24 23 22 21 21 21 21 23 27 30 30 27 22 17 16 16 14 11 12 14 16 16 16 16 16 15 15 14
9 9 8 10 13 14 14 14 15 16 16 16 18 19 19 19 20 20 21 22 23 23 24 24 24 25 25 25 25 26 25 25 24 24 24 24 24 24 25 25 25 25 24 24 25 24 23 22 21 18 15 12 10 12 17 22 25 25 23 20 18 17 16 12 13 16 17 17 17 17 16 15 15 15
9 9 8 11 12 13 14 15 16 16 17 18 19 19 19 20 21 22 23 23 23 24 25 25 25 26 26 26 26 26 26 25 25 24 24 23 23 23 23 24 25 25 25 26 27 26 24 22 21 19 13 7 6 8 10 14 16 18 22 23 21 19 18 16 16 16 16 16 17 16 15 16 17 16
9 9 12 13 12 13 14 16 17 18 18 19 19 20 21 21 22 23 24 24 24 25 25 25 26 26 26 26 26 26 26 25 24 24 24 23 23 22 22 23 23 24 25 25 25 25 24 23 22 21 15 8 6 6 6 9 12 14 18 23 24 22 21 21 20 19 17 17 16 14 15 17 18 17
8 10 13 13 13 14 15 16 17 18 19 19 20 21 22 23 24 25 25 25 25 25 25 26 26 27 27 27 27 27 26 25 24 24 23 23 23 23 22 22 22 22 22 22 22 23 23 23 23 22 19 16 13 11 8 8 10 11 13 20 25 25 24 24 24 22 20 19 18 16 17 18 19 19
9 11 12 12 13 14 15 16 17 18 19 21 22 23 23 24 25 25 26 26 26 26 26 27 28 28 28 28 28 27 26 26 25 25 24 24 24 24 24 23 23 22 21 21 20 20 21 22 23 24 25 24 23 20 15 10 8 8 9 14 22 26 25 25 26 27 25 23 22 23 24 23 22 22
10 11 11 12 13 14 15 16 17 18 20 21 22 23 24 25 25 26 27 28 28 28 28 28 28 28 28 28 27 27 26 25 25 25 25 24 24 25 25 25 24 23 21 20 19 19 21 23 24 24 25 25 23 19 15 9 5 5 6 9 16 23 25 25 27 28 28 29 29 26 24 23 24 24
11 11 11 12 12 13 15 16 17 18 20 21 22 24 25 26 26 27 28 28 28 28 28 28 28 28 28 28 27 27 26 26 25 25 25 25 24 24 24 24 23 22 20 19 20 21 22 22 21 21 22 23 22 16 10 7 7 8 7 8 11 17 20 23 26 28 29 33 33 29 26 24 20 17
11 10 11 12 12 14 15 16 17 19 20 22 24 26 26 26 26 27 27 28 28 28 28 28 29 28 28 28 28 27 27 26 26 25 25 25 25 24 23 23 23 23 22 22 22 22 20 19 18 18 19 21 21 17 10 9 12 14 13 13 15 16 17 19 23 26 29 31 32 31 31 28 21 18
11 11 11 12 13 14 15 16 18 20 21 24 26 27 26 26 27 28 29 29 29 29 29 29 29 29 29 28 27 26 26 26 26 25 25 26 25 25 24 23 23 21 21 21 20 19 18 17 17 18 19 19 19 17 13 13 15 17 18 20 21 22 23 23 24 25 25 23 22 24 26 25 21 25
11 10 11 12 13 14 16 18 20 22 23 26 27 27 27 28 28 29 29 29 29 29 29 29 28 28 28 27 26 25 26 26 26 26 26 25 25 24 22 21 20 19 19 19 17 16 15 15 16 18 19 17 16 17 17 18 19 20 21 22 23 24 25 26 26 24 21 17 14 17 19 16 17 24
Wind_Direction
79 78 77 76 62 61 66 46 37 47 31 31 28 2 354 350 338 327 334 329 333 345 345 345 355 2 11 18 16 12 358 312 325 324 303 286 275 281 286 283 279 276 274 275 274 271 266 261 257 253 252 251 249 246 242 241 240 242 243 245 246 244 242 240 237 236 234 231 227 225 229 232 232 233
90 71 72 73 41 37 46 21 23 35 21 19 7 345 338 324 323 328 322 309 312 330 336 338 340 339 342 347 342 334 317 300 304 305 299 291 279 276 278 277 276 274 273 273 273 273 272 268 265 260 257 254 253 251 248 245 243 243 243 244 245 245 244 243 241 238 238 238 236 230 230 234 235 234
107 88 81 75 47 26 26 18 17 7 357 5 359 348 341 323 314 306 302 289 297 320 325 321 326 330 328 328 325 317 307 299 300 302 300 296 288 282 277 274 274 273 274 275 275 275 274 272 269 264 260 258 257 255 253 250 248 247 246 246 245 245 244 244 244 242 240 240 240 236 234 236 238 237
134 117 107 83 29 26 28 23 14 353 338 322 317 322 318 308 297 283 281 268 280 301 310 310 314 317 315 314 312 306 303 299 297 296 293 289 287 284 281 280 279 277 276 277 277 277 275 274 271 266 262 260 259 259 257 256 253 252 251 250 248 247 246 245 244 244 243 242 242 241 239 238 238 238
164 159 151 156 190 36 22 13 358 341 331 312 298 286 271 284 294 291 291 290 293 301 307 307 306 306 306 306 305 302 301 299 298 296 291 289 289 289 288 288 287 285 282 279 277 276 274 272 270 267 265 263 262 260 259 258 257 255 254 253 251 250 249 247 245 244 244 244 244 244 242 239 238 239
179 179 170 166 180 196 319 346 345 337 340 340 328 322 325 322 318 316 309 307 306 305 306 306 304 303 302 300 300 301 300 300 300 296 292 290 289 289 289 288 288 287 284 281 280 280 278 275 268 263 262 263 265 266 264 263 261 260 258 256 256 254 251 249 247 245 245 245 245 246 244 241 240 240
187 183 180 179 190 205 225 267 296 318 324 330 332 328 328 322 312 305 300 296 291 290 295 301 303 304 304 301 300 299 297 297 296 295 293 291 288 286 285 286 287 286 281 280 284 285 281 276 267 260 256 258 263 267 270 270 269 267 264 260 258 257 255 253 250 248 246 245 245 246 245 244 242 240
191 186 189 190 195 202 200 220 262 293 307 310 325 326 321 318 315 313 309 302 299 298 300 302 302 303 303 301 300 300 298 297 296 295 295 292 290 289 288 288 288 286 282 283 288 291 285 277 269 260 256 256 260 265 269 271 272 272 270 266 263 260 257 255 253 251 248 246 245 244 245 246 244 241
191 185 191 196 196 199 198 206 230 249 279 303 315 317 316 313 313 314 312 309 308 305 302 301 301 301 300 298 298 298 297 296 294 292 292 291 291 290 288 288 287 287 286 288 293 296 294 288 280 271 265 263 264 266 268 270 272 273 272 270 267 265 261 258 255 253 251 249 247 244 244 244 244 242
195 190 193 198 200 202 202 203 217 236 253 281 295 298 304 307 308 310 309 307 305 301 297 296 297 297 296 294 294 295 295 295 295 297 295 292 288 286 286 286 287 288 288 287 288 292 294 292 287 280 275 272 270 269 269 270 271 271 272 271 269 267 263 260 257 255 254 251 249 247 244 243 243 242
201 200 198 199 203 206 206 206 207 211 226 250 267 277 287 294 299 303 304 303 301 299 298 295 294 294 294 293 294 295 294 292 293 295 296 296 295 293 293 294 295 293 289 285 285 287 291 291 288 284 279 275 273 272 272 272 270 270 271 272 270 268 265 261 258 256 256 254 251 249 247 244 243 241
203 199 197 201 204 207 210 211 209 219 251 264 261 263 271 282 294 300 301 301 299 297 296 294 294 295 295 294 295 297 297 295 295 298 303 308 309 305 301 300 299 297 294 291 289 290 292 291 289 286 283 280 276 272 270 271 272 272 272 272 271 269 268 265 262 258 257 256 253 251 249 247 244 241
201 197 200 205 207 214 221 220 226 253 276 273 266 270 272 272 280 289 294 297 299 299 297 295 297 298 297 297 300 304 307 306 306 307 306 303 301 300 297 294 293 293 292 289 287 288 291 291 291 289 287 286 286 280 272 268 270 273 273 273 271 268 267 267 265 262 258 257 255 252 250 248 246 243
202 201 207 211 213 222 230 234 249 270 278 271 273 280 276 275 280 285 289 290 292 293 292 292 294 296 294 294 300 304 306 306 306 307 307 302 298 297 294 292 293 291 290 295 298 297 295 295 297 297 292 288 289 290 286 278 275 275 273 271 267 265 265 266 265 263 260 259 257 255 253 250 247 245
203 201 209 219 223 229 238 248 261 273 277 280 289 289 280 279 280 280 283 284 284 284 283 283 286 289 291 294 299 302 304 307 310 313 316 316 314 309 301 297 299 295 298 307 308 302 297 296 296 295 291 288 287 289 293 293 289 283 278 272 265 260 261 264 265 264 262 260 259 257 255 253 249 246
204 204 211 221 228 233 240 250 260 270 278 286 292 289 283 282 281 281 282 281 279 277 275 276 277 280 286 292 295 297 300 307 312 313 313 313 314 313 308 303 303 299 303 313 312 303 298 296 295 293 289 287 286 284 286 290 291 289 286 279 265 255 257 264 266 265 263 261 260 258 256 255 253 249
205 207 210 217 226 235 244 252 256 262 272 280 284 280 280 285 288 288 286 283 280 275 271 269 269 273 279 284 287 288 292 300 306 307 306 307 309 312 310 306 304 300 302 312 313 304 297 295 293 290 287 286 285 283 282 285 286 287 290 286 267 251 250 258 263 265 265 264 264 261 258 256 254 251
206 207 210 218 227 237 247 255 258 257 259 266 278 284 286 290 292 292 291 289 285 278 271 266 266 268 271 275 279 284 287 291 293 293 297 301 303 304 300 297 296 295 295 302 303 294 291 292 288 284 285 287 285 283 283 284 284 284 286 288 274 254 247 251 255 260 265 268 269 268 263 258 254 251
205 214 224 231 236 243 252 258 258 256 252 256 269 281 285 287 288 288 289 289 287 284 279 275 273 273 273 273 275 278 279 278 277 281 288 293 296 297 294 291 291 290 290 292 291 285 286 288 284 282 286 288 286 285 285 285 285 284 283 286 280 261 249 247 248 253 260 266 271 272 269 262 255 251
213 226 235 238 244 251 258 260 259 260 263 267 275 281 284 286 286 286 289 287 284 283 282 280 280 280 279 276 274 274 273 273 277 282 285 287 289 289 287 285 284 284 285 283 278 279 283 283 279 278 281 285 285 287 288 286 286 285 283 287 281 260 246 242 243 246 252 261 268 274 273 267 259 253
225 233 238 241 248 255 262 268 272 274 276 278 280 282 282 284 285 287 291 290 286 284 283 282 282 282 281 279 276 276 276 275 277 280 280 281 283 281 279 278 278 279 279 278 275 278 282 284 281 281 282 281 280 281 284 286 288 285 283 285 276 253 242 242 245 246 249 256 264 270 271 269 264 256
231 241 249 250 252 257 263 270 274 273 274 276 278 280 283 285 286 289 294 294 291 288 283 279 278 278 279 279 279 280 279 276 274 272 272 273 274 272 270 276 280 278 274 272 272 274 279 282 285 290 293 288 281 277 277 282 285 280 275 273 264 249 244 247 252 254 257 260 265 268 270 269 264 256
230 243 262 265 259 256 258 262 266 267 270 272 273 278 285 288 289 291 293 292 291 289 286 284 283 282 282 283 284 284 283 280 277 273 272 271 268 265 266 273 280 281 277 273 268 268 276 285 291 298 304 299 291 285 280 285 288 275 260 253 247 242 244 250 256 259 260 263 266 269 270 268 261 254
248 265 279 278 267 258 258 263 267 270 275 279 282 286 289 288 287 289 289 289 291 293 293 292 290 288 287 287 286 285 283 280 277 273 272 269 263 260 262 266 268 271 276 280 276 279 290 301 302 303 304 299 300 302 298 300 301 269 247 243 238 238 244 252 257 260 261 265 268 269 269 265 257 252
272 290 293 282 264 257 265 271 279 287 293 296 296 297 296 294 293 295 296 298 300 299 296 294 292 291 291 290 288 287 285 282 277 273 270 268 263 259 258 260 263 267 273 275 276 285 298 306 303 302 300 296 301 308 307 306 303 231 227 244 247 251 261 265 268 271 271 270 271 272 271 264 253 247
278 291 295 284 264 267 285 294 303 307 307 306 305 306 307 307 307 306 304 303 303 301 297 295 294 293 293 292 290 288 285 283 281 277 273 271 268 264 260 258 259 261 265 268 270 280 292 299 298 299 302 303 307 311 308 303 296 283 294 302 297 291 286 284 286 287 284 280 278 276 270 257 244 238
277 284 286 282 283 295 301 306 311 313 313 312 312 313 312 311 310 306 301 298 295 292 290 288 288 287 286 285 285 285 284 284 282 281 281 280 277 274 269 264 261 260 263 266 265 268 275 281 284 288 292 297 303 305 303 297 293 301 313 303 290 291 293 290 290 291 290 288 283 270 249 230 221 218
272 278 281 282 287 292 298 305 311 313 315 317 316 313 311 310 308 302 298 294 289 286 284 283 281 281 280 279 277 278 279 280 280 280 281 283 282 282 280 275 271 269 269 270 267 263 264 266 270 274 278 283 287 287 288 290 292 299 306 294 270 276 287 287 288 290 289 285 275 250 221 204 200 202
286 279 278 279 284 291 300 306 306 303 305 310 314 315 314 310 306 301 295 288 282 280 281 280 278 279 280 280 281 281 279 278 277 276 277 278 279 280 282 281 278 275 272 272 270 266 262 261 261 263 266 270 273 274 279 286 288 292 298 292 261 254 267 276 282 286 282 271 248 220 204 195 192 193
291 282 283 285 291 299 305 303 296 293 295 300 310 319 318 310 304 299 291 284 283 285 287 288 286 285 286 286 286 286 282 278 277 275 275 276 276 276 278 279 279 277 273 271 269 266 262 260 261 263 263 263 265 268 274 281 282 283 290 291 260 234 253 269 275 275 264 243 216 198 194 192 189 188
303 302 302 303 307 312 311 304 297 293 293 301 312 321 322 316 310 307 302 300 299 297 296 296 294 294 294 293 290 288 284 282 281 280 278 276 275 275 275 274 274 274 273 270 266 263 262 260 260 262 263 264 266 266 268 274 275 275 281 281 263 243 256 263 261 257 237 211 195 189 188 186 184 183
317 321 328 330 321 314 317 324 326 322 322 323 324 322 319 316 313 311 311 310 306 302 300 299 299 299 298 296 294 293 291 289 288 287 283 279 276 275 273 269 269 270 269 268 265 262 260 260 260 262 263 265 267 267 268 271 271 270 276 279 264 248 251 251 242 231 209 191 184 184 183 180 178 179
350 355 343 331 325 328 337 344 342 337 333 329 325 321 317 315 313 310 308 305 302 300 298 296 295 295 294 293 292 292 290 288 288 287 285 282 280 279 274 268 267 268 268 267 267 265 264 264 265 266 267 266 265 263 262 265 266 264 268 273 260 240 235 237 233 219 198 185 176 173 176 176 174 175
2 351 328 326 340 349 348 343 336 331 327 324 322 320 317 315 312 308 303 299 297 296 296 295 295 295 294 292 291 288 286 284 283 282 280 279 280 280 278 275 273 272 270 268 267 266 266 267 268 269 269 268 266 262 256 254 257 258 260 265 259 238 224 223 224 213 195 184 174 164 165 169 170 174
358 331 317 335 352 351 342 336 330 328 326 322 318 315 312 309 307 304 301 298 297 298 298 297 296 295 293 292 290 288 285 283 281 280 277 275 274 273 273 273 272 271 269 267 266 266 265 265 264 264 264 264 265 264 257 251 250 251 252 256 254 238 224 219 215 202 189 184 176 162 157 161 164 169
348 321 323 351 355 344 335 332 329 328 325 320 315 311 307 305 304 303 301 300 299 297 296 295 294 293 292 291 290 288 286 283 281 279 276 273 270 269 268 266 266 267 266 265 265 265 264 261 255 251 253 256 257 261 260 255 252 248 244 242 239 231 225 216 204 194 186 182 175 164 158 160 162 164
315 317 352 7 352 338 333 331 329 328 324 319 315 312 308 307 307 304 303 301 298 295 293 292 292 291 290 290 289 287 285 282 279 276 274 272 269 266 264 263 263 263 262 263 264 262 259 255 248 240 238 243 248 254 263 266 264 254 243 234 225 219 213 199 183 181 184 181 174 166 160 154 152 157
297 327 2 3 347 339 337 334 331 329 324 320 318 314 311 309 307 305 304 302 299 296 294 292 291 289 289 289 288 287 284 281 277 274 272 271 268 264 262 262 261 261 259 260 261 258 254 250 244 237 232 234 247 253 261 266 263 255 243 231 217 202 193 184 175 171 172 170 165 163 160 152 147 153
313 346 359 354 345 342 338 332 329 326 323 321 319 315 312 309 307 307 306 303 300 298 296 293 291 290 290 289 287 285 283 280 277 274 272 270 267 264 263 263 262 262 261 258 257 256 251 245 240 235 232 233 237 243 256 268 258 245 237 230 217 201 188 181 174 166 162 163 158 148 144 143 145 153
346 356 355 349 345 342 335 328 326 324 322 321 318 314 312 310 308 307 305 302 300 299 297 295 294 292 291 289 287 285 283 279 276 274 273 271 268 263 262 262 262 263 262 259 256 253 246 242 241 240 238 239 240 241 245 256 258 242 224 219 218 214 205 191 176 165 160 162 157 144 137 137 140 146
1 358 351 347 344 339 332 326 324 323 322 321 318 315 313 310 307 306 304 302 300 298 296 295 295 293 291 290 288 285 283 281 278 275 273 271 269 265 262 261 259 258 257 255 253 249 246 248 251 249 246 244 240 235 232 229 222 215 203 199 206 211 209 200 189 179 168 161 152 140 133 137 139 140
3 356 349 347 344 338 331 327 326 325 323 320 319 318 315 312 309 307 305 302 301 299 296 295 295 294 292 291 289 287 284 282 279 277 274 271 269 266 263 259 255 252 251 251 252 252 253 255 255 249 245 239 229 222 217 198 174 169 166 165 178 188 190 190 189 184 175 166 159 149 142 141 139 137
359 352 349 347 341 335 331 330 329 326 323 322 323 321 319 316 313 310 307 304 302 299 297 295 296 295 293 292 290 288 285 281 278 276 274 271 268 265 261 257 254 251 249 250 254 255 254 251 246 241 236 229 220 213 201 179 168 160 150 143 148 156 163 168 171 169 166 166 165 161 157 155 156 162
354 352 350 345 337 332 330 330 328 326 325 327 326 323 321 318 315 312 310 306 302 300 299 298 297 296 294 293 292 289 285 283 280 277 275 273 269 266 262 259 256 251 247 247 250 249 247 245 243 240 233 221 211 202 184 165 157 152 145 142 140 140 141 145 150 152 154 159 164 166 164 165 169 170
353 353 348 341 336 332 328 327 325 326 329 330 327 323 320 317 315 313 312 309 306 304 302 300 299 298 297 295 294 291 289 289 286 282 280 277 273 268 263 258 254 249 244 241 240 239 240 243 242 235 224 210 199 189 177 164 156 149 143 140 137 136 136 138 140 138 134 136 152 168 170 171 170 164
Height
822 822 822 823 823 823 824 824 824 824 824 824 825 825 825 826 826 826 824 821 819 818 817 816 816 815 816 817 817 818 818 818 818 818 818 818 817 817 817 817 817 817 817 817 816 816 816 816 816 816 817 817 817 818 819 819 820 820 820 821 822 823 824 825 827 828 830 831 832 834 834 835 836 837
822 822 823 823 823 823 824 824 824 824 825 825 825 825 825 826 826 826 826 825 821 820 819 818 817 816 816 817 817 818 818 818 817 817 817 816 816 816 816 816 816 815 815 814 814 814 814 814 814 814 814 815 815 815 816 816 816 817 817 818 819 820 821 822 824 825 827 828 829 831 831 832 833 834
822 822 823 823 823 823 823 824 824 824 825 825 825 825 825 825 825 825 826 825 822 821 820 819 819 818 817 817 818 817 818 817 817 816 816 815 815 815 815 814 814 813 813 812 811 811 811 811 812 812 812 812 812 813 813 813 813 814 814 815 816 817 818 819 821 822 824 825 826 827 828 829 830 831
821 822 822 823 823 823 823 823 824 824 825 825 825 825 825 825 825 825 825 825 822 821 821 820 819 819 818 818 817 817 816 816 816 815 815 814 813 813 812 812 811 811 810 809 809 809 809 809 809 809 809 809 809 810 810 810 811 811 811 812 812 813 814 816 817 819 821 822 823 824 825 825 826 827
820 821 822 822 822 823 823 823 824 824 825 825 824 825 825 825 825 825 824 824 822 820 821 820 819 819 818 817 817 816 815 814 814 813 813 812 811 811 810 809 809 808 808 807 807 807 806 806 806 806 806 806 806 807 807 807 808 808 808 809 809 810 811 812 813 815 817 818 820 820 821 822 823 824
820 820 821 822 822 822 823 823 823 824 824 824 824 824 825 824 825 824 824 824 822 820 820 819 819 818 817 816 815 815 814 813 812 811 811 810 809 809 808 807 807 806 806 805 805 804 804 803 803 803 803 804 804 804 804 805 805 805 806 806 806 806 807 808 809 811 813 814 816 816 817 819 820 821
819 819 820 821 821 822 822 823 823 823 824 824 824 824 824 824 824 824 824 823 822 820 819 818 818 817 816 815 814 814 813 811 811 809 809 808 807 807 806 806 805 804 804 803 802 801 801 800 800 800 800 801 801 801 801 802 802 802 803 803 803 803 804 805 806 807 809 810 811 813 814 815 816 817
817 818 819 820 820 820 821 822 822 823 823 823 823 823 823 823 823 823 822 822 821 820 818 818 817 816 815 814 813 812 811 810 809 808 807 807 806 805 805 804 803 802 801 800 800 799 798 798 797 797 798 798 798 798 798 798 799 799 799 799 799 800 800 801 802 803 804 805 807 809 810 811 812 814
816 817 818 819 819 819 820 820 821 821 821 821 822 822 822 822 822 821 821 821 820 819 818 817 816 816 815 814 813 812 810 809 808 807 806 805 804 804 803 802 801 800 799 798 798 797 796 796 795 795 795 795 795 795 795 795 795 795 795 795 796 796 797 797 798 799 800 801 802 803 805 807 808 809
815 816 817 818 818 819 819 819 820 820 820 820 821 821 821 821 821 821 820 820 820 819 818 816 815 815 814 813 811 811 810 808 806 805 804 804 803 802 801 800 800 799 797 796 796 795 794 794 793 793 792 792 792 792 791 791 791 791 791 791 791 792 793 793 794 794 795 796 797 798 800 802 803 805
814 815 816 816 817 818 818 819 819 819 819 820 820 820 820 820 820 820 820 820 819 818 817 816 815 813 813 812 810 809 809 807 806 805 803 802 801 800 799 798 797 796 795 794 793 793 792 791 790 790 789 789 789 788 788 787 787 787 787 787 787 788 788 789 790 790 791 792 793 794 795 797 799 801
813 814 815 816 816 817 817 818 818 818 818 819 819 819 819 819 819 819 819 819 819 818 816 815 814 812 811 810 809 808 808 806 805 804 802 800 799 799 798 797 796 795 794 793 791 791 790 788 787 786 786 785 785 785 784 784 783 783 783 783 784 784 784 785 786 786 787 788 789 790 791 792 794 796
813 813 814 815 815 816 816 817 817 817 818 817 817 817 818 818 818 818 818 818 817 817 816 814 813 812 810 809 808 808 807 806 804 803 802 800 798 797 796 795 795 795 793 791 789 789 788 786 785 784 783 782 782 781 781 780 780 779 780 779 780 780 781 781 781 782 783 784 785 786 787 788 789 791
812 812 813 814 814 815 815 815 816 816 816 816 816 816 816 816 817 817 817 817 816 816 815 813 812 811 809 809 808 807 806 806 804 803 802 800 797 796 794 792 793 793 792 789 787 786 786 785 782 781 780 779 779 779 778 777 777 776 776 776 776 776 777 777 778 778 779 780 781 782 783 783 785 786
811 812 812 812 813 813 814 814 815 815 815 815 815 815 815 815 815 815 815 815 815 814 813 812 812 810 809 808 808 807 806 805 803 802 801 799 797 796 793 791 791 791 791 788 785 784 784 783 781 779 778 777 776 776 775 775 775 774 773 773 773 773 773 774 774 774 775 776 777 778 779 779 780 781
810 810 811 811 811 812 812 813 813 813 813 813 813 813 813 814 814 814 814 813 813 812 811 810 810 809 808 807 807 806 805 803 802 801 800 799 797 796 794 791 790 790 790 788 784 782 782 782 780 778 777 776 775 774 773 772 772 771 771 770 770 770 770 770 771 771 771 772 773 774 775 775 776 777
809 809 810 810 811 811 811 811 812 812 812 812 812 812 812 812 812 812 812 811 811 810 809 808 807 807 807 806 805 805 804 802 801 800 799 798 797 795 794 791 789 789 789 788 785 780 780 781 779 776 775 775 773 772 771 770 769 768 767 767 766 767 767 767 767 768 768 769 770 770 771 771 772 773
808 808 809 809 810 810 810 810 811 811 811 810 810 810 810 810 810 810 810 809 808 808 807 806 805 805 805 804 803 803 803 801 800 799 798 797 796 794 793 790 789 788 789 789 786 779 777 780 778 773 773 773 771 770 769 767 766 765 764 764 763 763 764 764 764 765 765 766 766 767 767 767 768 769
806 807 808 808 809 809 809 809 809 809 809 809 808 809 809 808 808 808 808 807 806 805 804 803 802 801 802 801 800 801 801 800 798 798 797 796 795 793 791 788 787 787 787 789 786 777 775 778 776 771 771 771 768 767 766 765 764 763 761 760 760 760 760 760 761 762 762 763 763 763 764 764 765 766
805 806 807 807 807 807 807 807 807 807 807 807 807 807 806 806 806 805 805 805 804 803 802 801 800 799 799 799 798 798 798 797 796 795 794 794 793 791 788 786 785 785 785 787 786 778 773 775 773 768 769 769 765 764 763 762 761 760 759 758 757 757 758 758 758 759 759 760 760 761 761 762 762 763
805 806 806 806 806 806 806 805 805 806 805 805 805 804 804 804 803 802 802 802 801 801 800 799 798 797 796 796 795 795 795 794 794 793 790 790 791 790 786 783 782 782 782 783 784 778 772 773 772 767 766 766 763 761 760 759 758 757 756 756 755 755 756 756 756 757 757 758 758 759 759 760 760 761
804 805 805 805 805 805 804 804 804 804 803 803 803 802 802 801 800 800 800 799 798 798 797 796 795 794 793 792 791 791 790 790 791 790 787 787 788 786 784 782 779 778 778 780 782 777 772 771 771 767 765 763 760 759 758 757 755 754 754 753 753 753 754 754 755 755 756 756 756 756 757 758 758 759
803 804 804 803 803 803 802 802 802 801 801 801 801 801 800 799 798 798 797 796 795 794 793 792 791 790 790 789 788 788 787 787 787 786 784 785 785 783 781 781 779 776 775 777 779 775 771 771 770 768 766 763 759 757 756 755 753 752 751 751 751 752 752 753 753 753 754 754 754 754 755 755 756 756
802 802 802 801 801 801 800 800 800 800 800 800 799 799 798 797 796 796 794 793 792 791 789 788 788 787 787 786 785 785 784 784 784 783 782 782 781 780 778 779 778 775 773 776 777 773 771 770 769 768 767 765 761 758 756 754 752 751 751 751 751 751 751 751 751 751 751 752 752 752 752 753 753 754
801 802 801 800 800 800 799 799 799 799 799 798 797 797 796 795 794 793 791 790 789 788 787 786 785 784 784 783 783 782 781 781 780 780 779 778 778 777 776 775 775 772 771 774 775 772 770 769 768 767 766 764 761 758 756 754 753 752 751 751 750 750 750 750 750 750 750 749 749 749 749 749 750 751
800 801 801 799 799 799 798 798 798 797 797 796 795 795 794 793 792 791 789 788 787 786 785 784 783 783 782 781 781 780 779 778 778 777 776 775 775 774 773 772 771 769 769 772 773 772 770 768 768 767 766 763 761 759 757 755 753 752 752 751 750 750 750 750 749 748 748 748 747 747 746 747 748 749
800 801 800 799 798 797 797 797 797 796 795 794 793 793 792 791 790 789 788 786 785 784 784 783 782 781 780 779 778 778 777 776 776 775 774 773 772 771 770 769 768 767 767 768 770 770 768 767 767 767 765 764 762 760 758 755 752 752 752 751 749 748 749 749 748 748 748 748 746 745 745 746 747 748
799 799 799 797 796 796 796 796 795 794 794 793 792 791 790 789 788 787 786 785 784 783 782 781 780 779 778 777 776 776 775 774 773 772 771 770 769 768 767 766 766 765 765 765 766 766 766 765 765 765 764 763 762 760 758 756 753 751 751 750 749 748 748 748 748 747 747 747 746 745 745 745 746 747
798 797 797 796 795 794 794 794 793 792 792 791 790 789 789 787 786 785 784 783 782 781 780 779 778 777 776 775 774 773 772 771 770 770 769 768 767 766 764 763 762 762 762 762 763 763 763 762 762 762 762 762 761 759 758 756 753 752 751 750 749 749 748 747 747 747 747 747 746 746 746 746 745 746
796 795 795 794 793 793 792 791 791 790 789 789 789 788 787 786 785 784 783 782 781 780 778 777 776 775 774 773 772 771 770 768 768 767 766 765 764 763 762 760 759 759 759 759 759 759 759 759 759 759 759 759 758 757 756 755 753 752 752 750 749 749 748 747 747 746 746 746 746 746 747 747 746 746
794 794 793 792 792 791 790 789 789 788 788 788 787 787 786 785 784 783 782 781 780 778 777 775 774 773 772 770 769 768 767 766 765 765 764 762 761 761 760 758 756 756 756 756 756 756 756 756 757 756 756 756 755 755 755 754 752 751 751 750 749 748 748 747 747 746 746 747 747 747 747 748 748 747
793 792 792 791 790 790 789 789 788 787 787 787 786 786 785 785 784 783 781 780 779 777 776 774 772 771 770 769 767 766 765 764 763 762 761 760 759 758 757 755 753 753 753 753 753 753 753 753 754 754 753 753 753 752 753 752 750 749 749 748 748 747 747 747 746 746 747 748 748 748 748 748 749 749
792 791 790 790 790 789 788 788 787 787 787 786 786 785 784 784 783 781 780 779 777 776 774 772 771 769 768 766 765 764 762 761 760 760 759 757 756 755 754 752 751 750 750 749 749 750 750 750 751 751 750 750 750 750 750 748 746 746 747 747 747 746 746 746 746 746 746 747 748 748 749 749 750 750
791 790 790 789 789 789 788 788 787 787 786 786 785 784 783 782 781 780 778 777 775 774 772 771 769 767 765 764 763 761 759 758 757 757 756 755 754 753 751 749 748 748 748 747 746 747 747 747 748 747 747 746 745 745 746 745 743 743 744 745 746 746 745 745 746 746 746 747 748 748 749 750 751 751
791 790 789 789 789 789 788 788 787 787 786 785 784 783 781 780 779 778 776 775 773 772 770 768 767 765 763 761 760 758 756 755 754 753 752 751 751 750 748 747 745 745 745 744 743 743 744 744 744 744 743 743 742 740 739 740 740 740 742 744 744 744 745 745 745 746 747 748 748 749 750 751 752 753
790 789 789 789 789 789 788 788 787 786 785 784 782 781 780 778 777 776 774 773 771 770 768 766 764 762 761 759 757 755 753 752 750 749 748 748 747 746 745 744 742 741 741 740 739 740 741 741 741 741 740 740 739 736 734 735 737 738 739 741 741 742 743 744 745 747 747 748 749 749 750 752 753 753
789 789 789 788 788 788 788 787 786 785 784 783 781 780 778 777 775 774 772 770 769 767 765 763 762 759 758 756 754 752 750 749 747 746 744 744 743 742 740 739 738 738 737 736 735 736 737 737 737 737 737 737 736 733 731 732 734 734 735 736 738 739 740 742 744 746 748 749 750 750 751 752 753 754
789 789 788 788 788 788 787 786 785 784 783 782 780 779 777 775 773 772 770 768 766 764 762 760 758 756 755 753 751 748 747 745 743 742 740 740 739 738 736 735 734 733 733 732 732 732 732 732 733 733 734 734 732 731 730 731 731 731 731 732 734 736 737 739 742 745 747 749 750 751 752 753 753 755
788 788 788 787 787 787 787 786 785 784 782 781 779 777 776 773 771 769 767 765 763 761 759 757 755 753 751 749 747 745 743 741 740 738 736 736 735 733 733 731 730 730 729 728 728 728 728 728 728 729 730 730 729 729 730 730 729 729 729 730 731 733 735 737 739 743 745 748 749 751 752 754 756 757
788 788 787 787 787 787 786 786 784 783 782 780 778 776 774 771 769 767 764 762 760 758 756 754 751 749 747 745 743 741 739 737 736 734 732 731 730 729 729 728 727 726 726 724 724 724 723 723 724 725 726 726 726 728 730 730 729 729 728 729 729 731 732 734 736 740 743 746 748 750 752 754 757 759
787 787 787 787 787 787 786 785 784 782 781 779 777 775 772 770 767 765 762 760 757 755 753 750 748 746 744 741 740 738 735 733 731 730 728 727 726 725 724 723 723 722 722 720 720 719 719 720 721 722 723 723 725 727 727 727 728 728 728 728 729 730 731 732 734 736 739 743 746 750 752 755 757 759
787 787 787 787 787 786 785 784 783 781 780 778 775 773 770 768 765 762 759 757 754 752 749 747 744 742 740 738 736 734 732 729 727 725 724 723 721 720 719 719 718 718 717 716 715 715 716 717 718 719 720 721 722 723 723 724 726 727 728 728 729 731 732 734 734 736 737 740 742 745 749 753 757 760
787 788 787 787 786 786 785 783 782 780 778 776 774 771 768 765 762 759 756 754 751 748 746 743 741 739 736 734 732 730 728 725 723 721 720 719 717 716 715 714 713 713 713 712 712 713 714 715 716 716 717 718 719 720 721 722 724 725 727 728 729 731 733 735 737 738 740 741 742 743 744 747 750 753
788 788 787 786 786 785 784 782 781 779 777 775 772 769 766 763 760 757 754 751 748 745 743 740 737 735 732 730 728 726 724 721 719 718 716 714 713 712 711 710 709 709 709 709 710 710 711 712 713 714 714 715 716 717 719 721 723 724 726 728 729 731 732 735 737 740 742 744 745 746 747 748 748 749
788 788 787 786 786 784 783 781 779 777 775 773 770 767 764 761 757 754 751 748 745 742 739 737 734 731 729 727 724 722 720 717 715 713 711 710 708 707 707 706 706 706 706 707 708 708 709 710 710 711 711 713 714 716 717 719 722 724 725 727 729 731 733 735 737 740 743 746 747 748 749 751 753 754